Location: Lussas
(44.6119°N, 4.4726°E)
Time: 14:01:49
(UTC+00:00)

CZ-4B R/B - Pass Details

Date: 26 November 2020
Orbit: 485 x 653 km, 97.9° (Epoch: 26 January)

Event Time Altitude Azimuth Distance (km) Brightness Sun altitude
Rises 05:03:11 0° 12° (NNE) 2,988 6.6 -19.1°
Reaches altitude 10° 05:05:25 10° 12° (NNE) 2,073 5.8 -18.8°
Maximum altitude 05:09:59 85° 284° (WNW) 658 3.0 -18.0°
Drops below altitude 10° 05:14:25 10° 196° (SSW) 2,022 5.7 -17.2°
Sets 05:16:35 0° 196° (SSW) 2,908 6.5 -16.8°
